Location: Gallinara
(44.0333°N, 8.2333°E)
Time: 02:31:14
(UTC+00:00)

SL-16 R/B - Pass Details

Date: 25 September 2020
Orbit: 842 x 846 km, 71.0° (Epoch: 29 October)

Event Time Altitude Azimuth Distance (km) Brightness Sun altitude
Exits shadow 01:25:00 17° 92° (E) 2,025 4.5 -38.6°
Drops below altitude 10° 01:28:00 10° 60° (ENE) 2,470 5.3 -38.3°
Sets 01:31:17 0° 41° (NE) 3,411 6.3 -37.9°
